Weather History for Fort Stockton, TX

Change the Weather History Date:

Tuesday, October 30, 2012

  Actual Average Record
Temperature  
Mean Temperature 67 °F -  
Max Temperature 81 °F 71 °F 88 °F (2010)
Min Temperature 53 °F 49 °F 46 °F (2002)
Cooling Degree Days 2    
Growing Degree Days 17 (Base 50)    
Moisture  
Dew Point 29 °F    
Average Humidity 29    
Maximum Humidity 48    
Minimum Humidity 12    
Precipitation  
Precipitation 0.00 in - - ()
Sea Level Pressure  
Sea Level Pressure 29.94 in    
Wind  
Wind Speed 10 mph (SSW)    
Max Wind Speed 13 mph    
Max Gust Speed 16 mph    
Visibility 10 miles    
Events      
Averages and records for this station are not official NWS values.
T = Trace of Precipitation, MM = Missing Value Source: NWS Daily Summary

Daily Weather History Graph

Daily Weather History Graph

Search for Another Location

Airport:

Trip Planner

Search our weather history database for the weather conditions in past years. The results will help you decide how hot, cold, wet, or windy it might be!

Date:

Astronomy

Oct. 30, 2012 Rise Set
Actual Time 8:05 AM CDT 7:04 PM CDT
Civil Twilight 7:40 AM CDT 7:29 PM CDT
Nautical Twilight 7:12 AM CDT 7:57 PM CDT
Astronomical Twilight 6:43 AM CDT 8:26 PM CDT
Moon 7:41 PM CDT (10/30) 8:49 AM CDT (10/30)
Length of Visible Light 11h 48m
Length of Day
10h 58m
Full, 99% of the Moon is Illuminated
Oct 30
Full
Nov 6
Last Quarter
Nov 13
New
Nov 20
First Quarter
Nov 28
Full

Hourly Weather History & Observations

Time (CDT) Temp. Dew Point Humidity Pressure Visibility Wind Dir Wind Speed Gust Speed Precip Events Conditions
12:53 AM 55.0 °F 35.1 °F 47% 29.96 in 10.0 mi SSE 12.7 mph - N/A   Clear
1:53 AM 53.1 °F 34.0 °F 48% 29.95 in 10.0 mi South 10.4 mph - N/A   Clear
2:53 AM 57.0 °F 34.0 °F 42% 29.93 in 10.0 mi SSW 12.7 mph - N/A   Clear
3:53 AM 57.0 °F 33.1 °F 40% 29.92 in 10.0 mi SW 12.7 mph - N/A   Clear
4:53 AM 57.0 °F 32.0 °F 39% 29.91 in 10.0 mi SSW 12.7 mph - N/A   Clear
5:53 AM 57.9 °F 30.9 °F 36% 29.91 in 10.0 mi SW 11.5 mph - N/A   Clear
6:53 AM 55.9 °F 30.0 °F 37% 29.94 in 10.0 mi SW 11.5 mph - N/A   Clear
7:53 AM 55.0 °F 28.0 °F 35% 29.95 in 10.0 mi WSW 10.4 mph - N/A   Clear
8:53 AM 57.0 °F 27.0 °F 32% 29.97 in 10.0 mi SW 10.4 mph - N/A   Clear
10:53 AM 69.1 °F 27.0 °F 21% 29.99 in 10.0 mi North 5.8 mph - N/A   Clear
11:53 AM 71.1 °F 30.0 °F 22% 30.00 in 10.0 mi North 6.9 mph - N/A   Clear
12:53 PM 75.0 °F 28.9 °F 18% 29.97 in 10.0 mi NNW 5.8 mph - N/A   Clear
1:53 PM 79.0 °F 27.0 °F 15% 29.94 in 10.0 mi NNW 11.5 mph 16.1 mph N/A   Clear
2:53 PM 79.0 °F 25.0 °F 14% 29.91 in 10.0 mi NNW 5.8 mph - N/A   Clear
3:53 PM 80.1 °F 24.1 °F 13% 29.89 in 10.0 mi Variable 3.5 mph - N/A   Clear
4:53 PM 81.0 °F 23.0 °F 12% 29.88 in 10.0 mi NNE 5.8 mph - N/A   Clear
7:53 PM 69.1 °F 27.0 °F 21% 29.92 in 10.0 mi SE 4.6 mph - N/A   Clear
8:53 PM 62.1 °F 28.9 °F 29% 29.93 in 10.0 mi SSE 6.9 mph - N/A   Clear
9:53 PM 62.1 °F 27.0 °F 26% 29.93 in 10.0 mi SSE 5.8 mph - N/A   Clear
10:53 PM 59.0 °F 28.0 °F 31% 29.94 in 10.0 mi SE 4.6 mph - N/A   Clear
11:53 PM 57.0 °F 30.0 °F 36% 29.94 in 10.0 mi South 4.6 mph - N/A   Clear